[[{"header":{"parameterUnit":"m.s-1","parameterCategory":1,"la1":30.2991,"la2":30.254,"lo1":-89.0895,"lo2":-89.0444,"dy":0.0017,"dx":0.0017,"nx":28,"ny":28,"refTime":"2025-12-31T09:00:00:Z","depth":0,"parameterNumber":2,"parameterNumberName":"U-component_of_WINDS"},"data":[0,0,0,0,0,0,0,0,0,0,0,0,0,0,0,0,0,0,0,0,0,0,0,0,0,0,0,0,0,0,0,0,0,0,0,0,0,0,0,0,0,0,0,0,0,0,0,0,0,0,0,0,0,0,0,0,0,0,2.4161,2.4162,0,2.4265,2.4267,2.4268,2.4259,2.4257,2.4256,2.4254,2.4365,2.437,2.4374,0,0,0,0,0,0,0,0,0,0,0,0,0,2.3958,2.3961,2.4161,2.4162,2.4163,2.4265,2.4267,2.4268,2.4259,2.4257,2.4255,2.4253,2.4364,2.4369,2.4374,0,0,0,0,0,0,0,0,0,0,0,0,0,2.4053,2.3963,2.4161,2.4171,2.4173,2.4265,2.4267,2.4269,2.4259,2.4257,2.4255,2.4252,2.4362,2.4368,2.4375,2.4465,0,0,2.4396,2.4398,0,0,0,0,0,0,0,0,2.4047,2.406,2.4168,2.417,2.4173,2.4246,2.4236,2.4334,2.426,2.4227,2.4254,2.4251,2.4328,2.4337,2.4362,2.447,2.4475,2.4396,2.44,2.4403,2.4405,0,0,0,0,0,0,0,2.4041,2.4055,2.4202,2.417,2.4173,2.4172,2.4183,2.4255,2.429,2.4229,2.4229,2.4241,2.4329,2.4356,2.4365,2.4476,2.4396,2.4402,2.4406,2.4409,2.4664,2.4667,0,0,0,0,0,0,2.4031,2.405,2.4199,2.4205,2.4103,2.4178,2.419,2.4225,2.4289,2.4296,2.4243,2.4241,2.4346,2.4357,2.4369,2.4479,2.4403,2.4409,2.4413,2.4662,2.4665,2.4668,0,0,0,0,0,0,2.4027,2.4044,2.4195,2.4128,2.4147,2.4184,2.4224,2.4229,2.4256,2.4299,2.4306,2.4264,2.4344,2.4359,2.4441,2.4482,2.4412,2.4418,2.4658,2.4663,2.4666,2.4699,0,0,0,0,0,0,2.4021,2.4043,2.4076,2.4128,2.415,2.4264,2.4226,2.4233,2.4267,2.4264,2.4321,2.4328,2.4343,2.4431,2.4448,2.449,2.4424,2.4655,2.466,2.4665,2.4694,2.4703,2.4711,0,0,0,0,0,2.4014,2.4081,2.4078,2.4096,2.4192,2.4266,2.4279,2.4294,2.427,2.4305,2.4333,2.4326,2.4475,2.4439,2.4458,2.4503,2.4652,2.4659,2.4665,2.469,2.4702,2.4711,0,0,0,0,0,0,2.4034,2.4088,2.4085,2.4171,2.4214,2.4264,2.4308,2.4306,2.4357,2.4353,2.4371,2.4384,2.4467,2.4493,2.4452,2.4594,2.4561,2.4571,2.4574,2.4585,2.4593,2.4586,2.4429,0,0,0,0,0,2.4048,2.4102,2.4148,2.422,2.4241,2.4271,2.4304,2.4312,2.4358,2.4376,2.441,2.4456,2.4513,2.455,2.4605,2.4698,2.4711,2.4739,2.4747,2.4754,2.4763,2.4815,2.4828,2.4688,2.4688,2.4688,0,0,2.4079,2.4115,2.4149,2.4225,2.4259,2.4316,2.4287,2.4348,2.4391,2.4386,2.4465,2.4492,2.4544,2.4632,2.4672,2.4656,2.4804,2.4762,2.4767,2.4772,2.4823,2.4836,2.4848,2.4693,2.4692,2.4691,0,0,2.4164,2.4196,2.426,2.4295,2.4347,2.4367,2.4382,2.4433,2.445,2.453,2.4528,2.458,2.4678,2.4715,2.4747,2.4848,2.4844,2.4866,2.4911,2.4962,2.4973,2.4983,2.5019,2.5032,2.4874,2.4874,2.4874,0,2.4196,2.428,2.4294,2.4356,2.4391,2.4388,2.4454,2.4487,2.4555,2.4579,2.4561,2.4684,2.4719,2.4816,2.4841,2.4866,2.4886,2.4859,2.497,2.498,2.4989,2.5025,2.5038,2.4877,2.4876,2.4876,2.4876,0,2.4317,2.4376,2.4422,2.4486,2.4526,2.459,2.4615,2.4654,2.4659,2.4681,2.4763,2.4805,2.4869,2.4892,2.4898,2.4991,2.498,2.4965,2.4932,2.5005,2.5038,2.5052,2.488,2.4879,2.4878,2.4878,0,0,2.4417,2.4489,2.4506,2.4536,2.4593,2.4639,2.4704,2.4765,2.4799,2.4846,2.4902,2.4985,2.4972,2.5008,2.5019,2.5063,2.5142,2.5044,2.5045,2.5061,2.5248,2.5258,2.5274,2.5139,2.5142,2.5144,2.5243,0,2.4509,2.4621,2.4636,2.4737,2.4792,2.4791,2.4848,2.489,2.4913,2.4964,2.499,2.5049,2.5027,2.5049,2.5093,2.5123,2.518,2.5116,2.5193,2.5195,2.518,2.5291,2.5303,2.5394,2.5257,2.5259,2.526,0,2.463,2.4679,2.4785,2.4836,2.486,2.491,2.4968,2.5017,2.5066,2.508,2.5121,2.5126,2.5194,2.5158,2.5254,2.521,2.5242,2.5262,2.5266,2.5274,2.5232,2.5303,2.5424,2.5438,2.5281,2.5279,2.5278,0,2.4693,2.4787,2.4862,2.4888,2.4949,2.4984,2.5012,2.5058,2.5094,2.5146,2.517,2.5229,2.5262,2.5308,2.533,2.5301,2.5425,2.539,2.5439,2.5439,2.5465,2.5463,2.5593,2.5485,2.5485,2.5485,2.5485,0,2.4794,2.4859,2.4892,2.4938,2.5012,2.5029,2.5102,2.5128,2.517,2.5222,2.5226,2.5275,2.5301,2.5355,2.5373,2.545,2.5464,2.5478,2.5482,2.5478,2.5477,2.55,2.5494,2.5489,2.5488,2.5487,2.5486,0,2.4877,2.4901,2.4984,2.5035,2.5049,2.5101,2.5146,2.5192,2.5214,2.5281,2.5298,2.5334,2.5398,2.5424,2.5503,2.5515,2.5604,2.5603,2.5587,2.5589,2.5637,2.5632,2.5787,2.5808,2.5686,2.5687,2.5688,0,2.4939,2.4989,2.5046,2.5081,2.5109,2.5165,2.5203,2.5223,2.5261,2.5321,2.5361,2.5424,2.5476,2.5579,2.5613,2.5674,2.5675,2.5725,2.5684,2.5678,2.5676,2.5673,2.5678,2.5732,2.5733,2.5734,2.5735,0,2.5048,2.5058,2.511,2.5168,2.5212,2.5259,2.5304,2.5333,2.536,2.5404,2.5469,2.5509,2.559,2.5654,2.5716,2.5746,2.5746,2.5748,2.5763,2.5759,2.5748,2.5755,2.5608,2.5744,2.5743,2.5743,2.5742,2.5742,2.5123,2.5168,2.5215,2.5274,2.531,2.5353,2.5398,2.5427,2.5481,2.5547,2.5556,2.5626,2.5675,2.5759,2.5792,2.5848,2.5835,2.5856,2.5862,2.5867,2.587,2.5739,2.5859,2.5859,2.5859,2.5859,2.5858,0,2.5232,2.5263,2.5317,2.538,2.5427,2.5422,2.5472,2.5512,2.5573,2.5618,2.5669,2.5745,2.5807,2.5846,2.5909,2.5947,2.5948,2.5963,2.596,2.5967,2.5877,2.5859,2.596,2.596,2.596,2.596,2.596,2.596,2.5295,2.537,2.5386,2.548,2.5511,2.5578,2.5608,2.5648,2.5684,2.5767,2.5819,2.5844,2.5887,2.5953,2.6011,2.6021,2.6044,2.6059,2.6069,2.5984,2.5973,2.5963,2.5946,2.6064,2.6064,2.6154,2.6155,2.6155]},{"header":{"parameterUnit":"m.s-1","parameterCategory":1,"la1":30.2991,"la2":30.254,"lo1":-89.0895,"lo2":-89.0444,"dy":0.0017,"dx":0.0017,"nx":28,"ny":28,"refTime":"2025-12-31T09:00:00:Z","depth":0,"parameterNumber":3,"parameterNumberName":"V-component_of_WINDS"},"data":[0,0,0,0,0,0,0,0,0,0,0,0,0,0,0,0,0,0,0,0,0,0,0,0,0,0,0,0,0,0,0,0,0,0,0,0,0,0,0,0,0,0,0,0,0,0,0,0,0,0,0,0,0,0,0,0,0,0,2.3626,2.3626,0,2.3633,2.3633,2.3633,2.3632,2.3632,2.3632,2.3632,2.3637,2.3637,2.3637,0,0,0,0,0,0,0,0,0,0,0,0,0,2.3609,2.3609,2.3626,2.3626,2.3626,2.3633,2.3633,2.3633,2.3632,2.3632,2.3632,2.3632,2.3637,2.3637,2.3637,0,0,0,0,0,0,0,0,0,0,0,0,0,2.3616,2.3609,2.3626,2.3627,2.3627,2.3633,2.3633,2.3633,2.3632,2.3632,2.3632,2.3631,2.3637,2.3637,2.3638,2.3643,0,0,2.3639,2.3639,0,0,0,0,0,0,0,0,2.3616,2.3617,2.3626,2.3627,2.3627,2.3632,2.3629,2.3637,2.3632,2.363,2.3632,2.3631,2.3635,2.3636,2.3637,2.3644,2.3644,2.3639,2.3639,2.3639,2.3639,0,0,0,0,0,0,0,2.3615,2.3616,2.3629,2.3627,2.3627,2.3625,2.3626,2.363,2.3633,2.363,2.363,2.3631,2.3635,2.3637,2.3637,2.3644,2.3639,2.3639,2.3639,2.3639,2.3653,2.3654,0,0,0,0,0,0,2.3615,2.3616,2.3629,2.3629,2.3621,2.3626,2.3627,2.363,2.3633,2.3634,2.3631,2.3631,2.3636,2.3637,2.3638,2.3644,2.3639,2.3639,2.364,2.3653,2.3653,2.3654,0,0,0,0,0,0,2.3615,2.3616,2.3628,2.3623,2.3624,2.3626,2.363,2.363,2.3632,2.3634,2.3634,2.3633,2.3636,2.3637,2.3642,2.3644,2.364,2.364,2.3653,2.3653,2.3654,2.3656,0,0,0,0,0,0,2.3614,2.3616,2.3619,2.3623,2.3624,2.3633,2.363,2.3631,2.3633,2.3633,2.3636,2.3636,2.3636,2.3641,2.3642,2.3644,2.364,2.3653,2.3653,2.3653,2.3656,2.3657,2.3657,0,0,0,0,0,2.3613,2.362,2.3619,2.3621,2.3628,2.3633,2.3634,2.3635,2.3633,2.3636,2.3637,2.3636,2.3643,2.3642,2.3643,2.3645,2.3653,2.3653,2.3653,2.3656,2.3657,2.3657,0,0,0,0,0,0,2.3616,2.362,2.362,2.3628,2.363,2.3633,2.3637,2.3636,2.3639,2.3639,2.3639,2.3639,2.3644,2.3645,2.3643,2.365,2.3648,2.3648,2.3649,2.365,2.365,2.365,2.3641,0,0,0,0,0,2.3618,2.3622,2.3625,2.3632,2.3633,2.3634,2.3637,2.3637,2.3639,2.364,2.3642,2.3644,2.3646,2.3648,2.3651,2.3656,2.3656,2.3658,2.3659,2.3659,2.3659,2.3661,2.3661,2.3655,2.3655,2.3655,0,0,2.3621,2.3624,2.3626,2.3632,2.3634,2.3638,2.3635,2.364,2.3642,2.3641,2.3645,2.3646,2.3648,2.3653,2.3655,2.3654,2.3661,2.3659,2.366,2.366,2.3661,2.3662,2.3662,2.3655,2.3655,2.3655,0,0,2.3628,2.3631,2.3636,2.3638,2.3641,2.3642,2.3643,2.3646,2.3647,2.3651,2.365,2.3652,2.3657,2.3658,2.3659,2.3665,2.3664,2.3666,2.3668,2.367,2.367,2.3671,2.3672,2.3672,2.3666,2.3666,2.3666,0,2.3632,2.3638,2.3639,2.3643,2.3645,2.3644,2.3648,2.3649,2.3653,2.3654,2.3653,2.3658,2.3659,2.3663,2.3665,2.3666,2.3666,2.3665,2.367,2.3671,2.3671,2.3672,2.3673,2.3666,2.3666,2.3666,2.3666,0,2.3641,2.3645,2.3649,2.3652,2.3654,2.3659,2.3659,2.3661,2.366,2.3661,2.3664,2.3666,2.3668,2.3669,2.3669,2.3672,2.3672,2.367,2.3668,2.3672,2.3673,2.3673,2.3666,2.3666,2.3666,2.3666,0,0,2.3652,2.3655,2.3656,2.3657,2.3659,2.3662,2.3665,2.3667,2.3669,2.3671,2.3672,2.3676,2.3674,2.3676,2.3675,2.3676,2.3679,2.3675,2.3675,2.3675,2.3682,2.3683,2.3684,2.3679,2.3679,2.3679,2.3682,0,2.3659,2.3665,2.3665,2.3671,2.3674,2.3672,2.3674,2.3676,2.3676,2.3677,2.3677,2.3679,2.3678,2.3678,2.3679,2.3679,2.3681,2.3679,2.3679,2.368,2.3679,2.3684,2.3686,2.3689,2.3682,2.3683,2.3683,0,2.3668,2.367,2.3676,2.3677,2.3678,2.3681,2.3682,2.3684,2.3684,2.3684,2.3685,2.3684,2.3686,2.3683,2.3685,2.3684,2.3684,2.3684,2.3684,2.3684,2.3681,2.3684,2.369,2.369,2.3683,2.3683,2.3683,0,2.3674,2.3678,2.3682,2.3683,2.3684,2.3685,2.3686,2.3686,2.3687,2.3688,2.3688,2.3689,2.369,2.369,2.3689,2.3687,2.3691,2.3688,2.369,2.369,2.3691,2.369,2.3696,2.3691,2.3691,2.3691,2.3691,0,2.3682,2.3685,2.3684,2.3687,2.369,2.3689,2.3692,2.3692,2.3692,2.3693,2.3692,2.3693,2.3691,2.3692,2.3691,2.3692,2.3692,2.3692,2.3691,2.3692,2.3692,2.3692,2.3691,2.3691,2.3691,2.3691,2.3691,0,2.3689,2.3689,2.3692,2.3693,2.3693,2.3695,2.3695,2.3696,2.3696,2.3697,2.3698,2.3697,2.3697,2.3696,2.3696,2.3695,2.3697,2.3696,2.3697,2.3697,2.3698,2.3697,2.3703,2.3704,2.3699,2.3699,2.3699,0,2.3693,2.3696,2.3696,2.3697,2.3698,2.3699,2.37,2.3699,2.37,2.37,2.3701,2.3701,2.3701,2.3702,2.3701,2.3701,2.37,2.3702,2.37,2.37,2.3699,2.3699,2.3699,2.3702,2.3702,2.3702,2.3703,0,2.3701,2.3701,2.3702,2.3703,2.3704,2.3705,2.3705,2.3706,2.3705,2.3705,2.3706,2.3706,2.3706,2.3706,2.3706,2.3705,2.3703,2.3703,2.3703,2.3704,2.3704,2.3703,2.3698,2.3703,2.3703,2.3703,2.3703,2.3703,2.3707,2.3708,2.3709,2.371,2.371,2.371,2.3711,2.3711,2.3711,2.3711,2.371,2.3711,2.371,2.3709,2.3708,2.3708,2.3707,2.3708,2.3708,2.3708,2.3708,2.3704,2.3708,2.3708,2.3708,2.3708,2.3708,0,2.3714,2.3714,2.3715,2.3716,2.3716,2.3715,2.3715,2.3715,2.3716,2.3715,2.3715,2.3715,2.3715,2.3713,2.3713,2.3713,2.3712,2.3712,2.3712,2.3712,2.3709,2.3709,2.3713,2.3713,2.3713,2.3713,2.3713,2.3713,2.3718,2.372,2.3719,2.3721,2.3721,2.3722,2.3721,2.3721,2.3721,2.3721,2.3721,2.372,2.3718,2.3717,2.3717,2.3716,2.3716,2.3716,2.3716,2.3713,2.3712,2.3712,2.3712,2.3717,2.3717,2.3719,2.3719,2.3719]}]]